Location: ?????
(31.8092°N, 35.2590°E)
Time: 03:01:04
(UTC+00:00)

Cosmos 2360 Rocket - Pass Details

Date: 24 October 2021
Orbit: 832 x 846 km, 71.0° (Epoch: 07 December)

Event Time Altitude Azimuth Distance (km) Brightness Sun altitude
Rises 16:28:10 0° 212° (SSW) 3,368 5.8 -20.0°
Reaches altitude 10° 16:30:39 10° 217° (SW) 2,440 5.1 -20.5°
Maximum altitude 16:36:06 52° 293° (WNW) 1,033 2.9 -21.7°
Drops below altitude 10° 16:41:36 10° 9° (N) 2,461 4.5 -22.9°
Sets 16:44:08 0° 15° (NNE) 3,401 5.2 -23.4°
